Weather in Albany

Australia     35°00′34″S   117°53′03″E
temp.,
°C
wind,
m/s
gust,
m/s
humid.,
%
clouds,
%
prec.,
mm/h
press.,
hPa
HPBL,
m
11 may, tue
tue1123:00+14nne35845 0.0 1024161
02:00+14nne4984100 0.0 1022216
05:00+13nne4883100 0.0 1021201
08:00+15nne51274100 0.0 1020359
11:00+20n61054100 0.0 1019697
14:00+23nnw5849100 0.0 1015797
17:00+20nnw3561100 0.0 101597
20:00+18nnw4126433 0.0 1015277
12 may, wed
wed1223:00+17nw41164100 0.0 1015309
02:00+17w51082100 0.1 1016548
05:00+16ssw91189100 3.4 1018880
08:00+15ssw81180100 6.4 1022971
11:00+15ssw895943 0.1 10251636
14:00+16ssw895435 0.1 10241752
17:00+13s6865100 0.0 1026858
20:00+13s576197 0.1 10281037
13 may, thu
thu1323:00+14sse4657100 0.0 1029845
02:00+14se4665100 0.1 1028746
05:00+14se466392 0.1 1029797
08:00+14se4664100 0.1 1030803
11:00+15ese4564100 0.1 10311122
14:00+16ese4564100 0.2 10291111
17:00+14e356990 0.1 1029628
20:00+14ene357086 0.1 1030451
14 may, fri
fri1423:00+14ene3668100 0.1 1029544
02:00+15ne2466100 0.1 1029424
05:00+14ne246999 0.0 1030400
08:00+14ne257096 0.1 1031486
11:00+18ene566083 0.1 10301247
14:00+18e566286 0.3 10291367
17:00+16e697558 0.3 1030781
20:00+16e697586 0.6 1031766
15 may, sat
sat1523:00+16ene697696 0.3 1031828
02:00+16ene5981100 0.6 1030779
05:00+15nne498847 0.5 1030529
08:00+13nne4984100 0.6 1031341
11:00+18ne585710 0.0 10301007
14:00+19ene575035 0.0 10281489
17:00+17ene58625 0.0 1028579
20:00+15ne597315 0.0 1028501